Location: Caseificio
(44.7500°N, 11.0500°E)
Time: 23:52:22
(UTC+00:00)

USA 229 - Pass Details

Date: 26 May 2022
Orbit: 938 x 1274 km, 63.4° (Epoch: 24 May)

Event Time Altitude Azimuth Distance (km) Brightness Sun altitude
Rises 01:02:33 0° 317° (NW) 4,014 7.0 -19.6°
Reaches altitude 10° 01:05:24 10° 309° (NW) 3,097 6.2 -19.3°
Maximum altitude 01:12:07 38° 245° (WSW) 1,799 4.5 -18.7°
Enters shadow 01:15:15 27° 203° (SSW) 2,176 4.7 -18.5°
